Regional Weather Roundup
Issued by NWS

Home | Current Version | Previous Version | Graphics & Text | Print | Product List | Glossary On
Versions: 1 2 3 4 5 6 7 8 9 10 11 12 13 14 15 16 17 18 19 20 21 22 23 24 25 26 27 28 29 30 31 32 33 34 35 36 37 38 39 40 41 42 43 44 45 46 47 48 49 50
395
ASUS45 KBOU 200410
RWRCO

WEATHER ROUNDUP FOR COLORADO
NATIONAL WEATHER SERVICE PUEBLO CO
900 PM MST MON FEB 19 2018

NOTE: "FAIR" INDICATES FEW OR NO CLOUDS BELOW 12000 FEET WITH NO
SIGNIFICANT WEATHER AND/OR OBSTRUCTIONS TO VISIBILITY.

COZ001>005-013-030-031-200500-
...NORTHWEST COLORADO...

CITY           SKY/WX    TMP DP  RH WIND       PRES   REMARKS
CRAIG          LGT SNOW   3  -3  76 SW9       29.64S WCI -12
HAYDEN         LGT SNOW   2  -2  83 W10       29.61R FOG     WCI -14
MEEKER         SNOW       6   1  80 N5        29.63R VSB 1/2 WCI  -3
RABBIT EARS PA NOT AVBL
STEAMBOAT SPGS CLOUDY     3  -1  83 SW8       29.56F WCI -10
WALDEN         FAIR      -2  -8  78 N15       29.41F WCI -22
$$

COZ006>008-011-200500-
...WEST CENTRAL VALLEYS...

CITY           SKY/WX    TMP DP  RH WIND       PRES   REMARKS
GRAND JUNCTION LGT SNOW  27  26  96 NW14      29.56R FOG     WCI  16
MONTROSE       MOCLDY    29  19  66 S8        29.59R WCI  21
EAGLE            N/A    N/A N/A N/A MISG        N/A
RIFLE          BLWGSNOW  16  11  80 NW28G40   29.57R VSB 3/4 WCI  -4
DELTA          NOT AVBL
NUCLA          FAIR      28  18  64 S10       29.61R WCI  19
$$

COZ017>023-064>068-200500-
...SOUTHWEST COLORADO...

CITY           SKY/WX    TMP DP  RH WIND       PRES   REMARKS
DURANGO        CLOUDY    25  20  81 SW12G22   29.63R WCI  14
CORTEZ         CLOUDY    27  22  81 S12       29.64R WCI  17
PAGOSA SPRINGS LGT SNOW  25  23  93 SW15      29.63R WCI  12
TELLURIDE      LGT SNOW  20   9  62 SW17G30   29.54R WCI   5
WOLF CREEK PAS CLOUDY     9   7  92 MISG      29.46R
$$

COZ009-010-012-014-032>034-037-058>063-200500-
...CENTRAL COLORADO...

CITY           SKY/WX    TMP DP  RH WIND       PRES   REMARKS
ASPEN          LGT SNOW  21  18  88 N9        29.45R FOG     WCI  11
BUENA VISTA    LGT SNOW  25  17  69 W20G28    29.45R WCI  11
COPPER MTN     CLOUDY    14   9  79 MISG      29.35F
BERTHOUD PASS  SNOW       5  -4  66 NW7G28    29.32F VSB 1/2 WCI  -7
COTTONWOOD PAS CLOUDY    23  19  86 NW7G16    29.41R WCI  15
GUNNISON       LGT SNOW  22  15  75 W12       29.53R WCI  10
KREMMLING      CLOUDY    27  21  80 SW13      29.43F WCI  16
LEADVILLE      LGT SNOW  16  12  84 S3        29.41R FOG
MONARCH PASS     N/A      9   5  85 MISG      29.49R
SALIDA         CLOUDY    29  20  70 SW12G18   29.54R WCI  19
SUNLIGHT       SNOW      10   7  85 S14G28    29.42R VSB 1/2 WCI  -5
WILKERSON PASS SNOW      18  14  86 SW15G22   29.40R VSB 1/2 WCI   3
$$

COZ069>075-200500-
...SAN LUIS VALLEY/SANGRE DE CRISTO MOUNTAINS...

CITY           SKY/WX    TMP DP  RH WIND       PRES   REMARKS
ALAMOSA        CLOUDY    30  26  85 SW10      29.50R WCI  21
DEL NORTE      CLOUDY    28  20  74 SW17G28   29.51R WCI  15
LA VETA PASS   CLOUDY    27  21  80 S32G61    29.56S WCI  10
SAGUACHE       CLOUDY    30  23  74 NW13G25   29.47R WCI  20
$$

COZ035-036-038>040-200500-
...NORTHERN COLORADO FRONT RANGE...

CITY           SKY/WX    TMP DP  RH WIND       PRES   REMARKS
DENVER INTL AP LGT SNOW   7   3  84 NE10      29.69R VSB 3/4 WCI  -8
DMNS CITY PARK NOT AVBL
AURORA         LGT SNOW   7   4  88 NE8       29.66R FOG     WCI  -6
FRONT RANGE AP LGT SNOW   9   7  92 NE9       29.69R VSB 1   WCI  -5
ERIE MUNI ARPT SNOW       9   6  87 E5        29.79R VSB 1/2 WCI   1
BOULDER MUN AP LGT SNOW  10   9  92 NE7       29.70R VSB 1   WCI   0
CENTENNIAL     SNOW       8   5  87 N7        29.64R VSB 1/2 WCI  -3
BROOMFIELD     SNOW      10   7  85 N5        29.69R VSB 1/4 WCI   2
LOVELAND       LGT SNOW   4   1  88 MISG      29.75R FOG
LONGMONT       LGT SNOW  11   7  83 NE8       29.74S VSB 1   WCI  -1
$$

COZ041-046-047-076>085-087-088-200500-
...PIKES PEAK/PALMER DIVIDE AND SOUTHERN FOOTHILLS...

CITY           SKY/WX    TMP DP  RH WIND       PRES   REMARKS
COLO. SPRINGS  LGT SNOW  18  14  84 E15       29.55R FOG     WCI   4
A. F. ACADEMY  BLWGSNOW  10   7  85 NW16      29.54R VSB 1   WCI  -7
SCHRIEVER AFB  NOT AVBL
CHEYENNE MTN   NOT AVBL
ELLICOTT         N/A    N/A N/A N/A E15         N/A
FALCON         LGT SNOW  10   6  87 MISG      29.53F
FORT CARSON    FLURRIES  20  17  88 E6        29.54S WCI  12
LIMON          CLOUDY    10   6  84 N12       29.65R WCI  -5
MONUMENT HILL  LGT SNOW   3   0  85 N8        29.57R WCI -10
CANON CITY     CLOUDY    23  19  86 S5        29.58R WCI  17
WALSENBURG     CLOUDY    19  18  93 NW13      29.54R WCI   7
TRINIDAD       MIX PCPN  23  19  85 NE8       29.50R WCI  14
$$

COZ042>045-048>051-090-091-200500-
...NORTHEAST COLORADO...

CITY           SKY/WX    TMP DP  RH WIND       PRES   REMARKS
GREELEY ARPT   LGT SNOW   3   0  85 NE13      29.78R VSB 1   WCI -14
AKRON          FLURRIES   5   2  87 NE16      29.72R WCI -14
BURLINGTON     LGT SNOW  12   9  87 NE12      29.72R VSB 3/4 WCI  -2
WRAY           LGT SNOW  12   9  85 N13       29.79R WCI  -3
YUMA           NOT AVBL
STERLING       LGT SNOW   9   3  78 NE12      29.79R WCI  -6
HOLYOKE        LGT SNOW  12   7  79 N16       29.82R WCI  -4
FORT MORGAN    LGT SNOW   5   0  77 N10       29.77R WCI -10
$$

COZ086-089-092>099-200500-
...SOUTHEAST COLORADO...

CITY           SKY/WX    TMP DP  RH WIND       PRES   REMARKS
PUEBLO         CLOUDY    25  20  81 E14       29.61R WCI  13
LA JUNTA       LGT SNOW  22  16  78 E23G29    29.59R WCI   6
LAMAR          FLURRIES  20  12  71 NE18G28   29.66R WCI   5
SPRINGFIELD      N/A     23  18  81 E15       29.57F WCI  10
$$





USA.gov is the U.S. government's official web portal to all federal, state and local government web resources and services.